Regional Weather Roundup
Issued by NWS

Home | Current Version | Previous Version | Graphics & Text | Print | Product List | Glossary On
Versions: 1 2 3 4 5 6 7 8 9 10 11 12 13 14 15 16 17 18 19 20 21 22 23 24 25 26 27 28 29 30 31 32 33 34 35 36 37 38 39 40 41 42 43 44 45 46 47 48 49 50
000
ASUS43 KLSX 260457
RWRMO

WEATHER SUMMARY FOR MISSOURI
NATIONAL WEATHER SERVICE SPRINGFIELD MO
1200 AM CDT WED APR 26 2017

NOTE: "FAIR" INDICATES FEW OR NO CLOUDS BELOW 12,000 FEET WITH NO
       SIGNIFICANT WEATHER AND/OR OBSTRUCTIONS TO VISIBILITY.
       CURRENT SKY AND/OR WEATHER CONDITIONS ARE NOT AVAILABLE FOR
       CHILLICOTHE AND FARMINGTON.

MOZ001>031-035>038-043-044-053-054-260600-
...NORTHERN AND WESTERN MISSOURI...

CITY           SKY/WX    TMP DP  RH WIND       PRES   REMARKS
KANSAS CTY INT CLOUDY    50  48  93 N13       29.49F
KANSAS C DTWN  TSTM      54  52  94 N8G18     29.48F FOG
LEE`S SUMMIT   LGT RAIN  56  55  97 NW13      29.51R
ST JOSEPH      LGT RAIN  49  46  90 N17       29.52F
CHILLICOTHE      N/A     59  56  89 CALM      29.49S

$$
MOZ066>068-077>081-088>096-101>105-260600-
...SOUTHWEST MISSOURI...

CITY           SKY/WX    TMP DP  RH WIND       PRES   REMARKS
SPRINGFIELD    PTCLDY    66  60  81 SE5       29.48F
JOPLIN         RAIN      61  59  93 W16G32    29.47R FOG

$$
MOZ032>034-039>042-045>050-055>058-069>072-260600-
...CENTRAL MISSOURI...

CITY           SKY/WX    TMP DP  RH WIND       PRES   REMARKS
COLUMBIA       NOT AVBL
JEFFERSON CITY CLOUDY    74  55  51 SE5       29.48S
ROLLA          MOCLDY    68  53  58 S13       29.49F
SEDALIA        LGT RAIN  68  62  81 CALM      29.47F
WHITEMAN AFB   TSTM      64  64 100 NW8       29.48R

$$
MOZ051-052-059>065-260600-
...EAST CENTRAL MISSOURI...

CITY           SKY/WX    TMP DP  RH WIND       PRES   REMARKS
ST LOUIS INTL  MOCLDY    72  50  45 S10       29.53F

$$
MOZ072>076-082>087-097>100-106>115-260600-
...SOUTH CENTRAL AND SOUTHEAST MISSOURI...

CITY           SKY/WX    TMP DP  RH WIND       PRES   REMARKS
CAPE GIRARDEAU CLOUDY    65  53  65 S7        29.58S
POPLAR BLUFF   PTCLDY    68  56  65 S10       29.57S
WEST PLAINS    CLOUDY    68  53  58 S8        29.56F

$$



USA.gov is the U.S. government's official web portal to all federal, state and local government web resources and services.